This is the latest recevied weather packets stored in our database for station/object K1BES. If no packets are shown the sender has not sent any weather packets the latest 10 day(s).
| Time | Temp. | Humidity | Pressure | Rain* | Wind** | Luminosity | Snow |
|---|---|---|---|---|---|---|---|
| 1787504864 | 33.89° C | 60% | 1019.4 hPa | 0 mm | - | 803 W/m² | - |
| 1787504560 | 33.89° C | 60% | 1019.3 hPa | 0 mm | - | 899 W/m² | - |
| 1787504250 | 33.89° C | 61% | 1019.2 hPa | 0 mm | - | 970 W/m² | - |
| 1787503946 | 33.89° C | 61% | 1019.2 hPa | 0 mm | - | 926 W/m² | - |
| 1787503646 | 33.33° C | 62% | 1019.3 hPa | 0 mm | - | 780 W/m² | - |
| 1787503343 | 33.33° C | 62% | 1019.1 hPa | 0 mm | - | 711 W/m² | - |
| 1787503043 | 33.33° C | 62% | 1019.3 hPa | 0 mm | - | 641 W/m² | - |
| 1787502739 | 33.89° C | 59% | 1019 hPa | 0 mm | - | 421 W/m² | - |
| 1787502434 | 33.89° C | 60% | 1019.1 hPa | 0 mm | - | 765 W/m² | - |
| 1787502133 | 34.44° C | 58% | 1019 hPa | 0 mm | - | 837 W/m² | - |
| 1787501829 | 34.44° C | 59% | 1019.1 hPa | 0 mm | - | 857 W/m² | - |
| 1787501525 | 33.89° C | 61% | 1019 hPa | 0 mm | - | 879 W/m² | - |
| 1787501221 | 33.33° C | 62% | 1019.2 hPa | 0 mm | - | 842 W/m² | - |
| 1787500917 | 33.33° C | 63% | 1019.3 hPa | 0 mm | - | 742 W/m² | - |
| 1787500613 | 33.33° C | 61% | 1019.4 hPa | 0 mm | - | 717 W/m² | - |
| 1787500308 | 33.33° C | 64% | 1019.2 hPa | 0 mm | - | 704 W/m² | - |
| 1787500007 | 33.33° C | 61% | 1019.4 hPa | 0 mm | - | 778 W/m² | - |
| 1787499702 | 33.33° C | 63% | 1019.5 hPa | 0 mm | - | 881 W/m² | - |
| 1787499402 | 32.78° C | 62% | 1019.6 hPa | 0 mm | - | 829 W/m² | - |
| 1787499098 | 32.78° C | 62% | 1019.3 hPa | 0 mm | - | 733 W/m² | - |
| 1787498796 | 33.33° C | 62% | 1019.4 hPa | 0 mm | - | 535 W/m² | - |
| 1787498492 | 32.78° C | 64% | 1019.3 hPa | 0 mm | - | 722 W/m² | - |
| 1787498188 | 32.22° C | 65% | 1019.2 hPa | 0 mm | - | 699 W/m² | - |
| 1787497884 | 32.22° C | 66% | 1019.1 hPa | 0 mm | - | 664 W/m² | - |
| 1787497580 | 31.67° C | 68% | 1019.2 hPa | 0 mm | - | 636 W/m² | - |
* Rain latest hour (hover to see other rain measurements)
** Current wind speed in m/s (hover to see current wind gust speed)